SCP
0 0 0 0 0 0 0 0 0 0 0 0 0 0 0 0 0 0 0 0 0 0 0 0 0 0 0 0 0 0 0 0 0 0 0 0 0 0 0 0 0 0 0
0 0 0 0 0 0 0 0 0 0 0 0 0 0 0 0 0 0 0 0 0 0 0 0 0 0 0 0 0 0 0 0 0 0 0 0 0 0 0 0 0 0 0
0 0 0 0 0 0 0 0 0 0 0 0 0 0 0 0 0 0 0 0 0 0 0 0 0 0 0 0 0 0 0 0 0 0 0 0 0 0 0 -0 -0 0 0
0 0 0 0 0 0 0 0 0 0 0 0 0 0 0 0 0 0 0 0 0 0 0 0 0 0 0 0 0 0 0 0 0 0 0 0 0 0 0 -0 -0 -0 0
0 0 0 0 0 0 0 0 0 0 0 0 0 0 0 0 0 0 0 0 0 0 0 0 0 0 0 0 0 0 0 0 0 0 0 0 0 0 0 -0 -0 -0 0
0 0 0 0 0 0 0 0 0 0 0 0 0 0 0 0 0 0 0 0 0 0 0 0 0 0 0 0 0 0 0 0 0 0 0 0 0 0 0 0 0 0 0
0 0 0 0 0 0 0 0 0 0 0 0 0 0 0 0 0 0 0 0 0 0 0 0 0 0 0 0 0 0 0 0 0 0 0 0 0 0 0 0 0 0 0
0 0 0 0 0 0 0 0 0 0 0 0 0 0 0 0 0 0 0 0 0 0 0 0 0 0 0 0 0 0 0 0 0 0 0 0 0 0 0 0 0 0 0
0 0 0 0 0 0 0 0 0 0 0 0 0 0 0 0 0 0 0 0 0 0 0 0 0 0 0 0 0 0 0 0 0 0 0 0 0 0 0 0 0 0 0
0 0 0 0 0 0 0 0 0 0 0 0 0 0 0 0 0 0 0 0 0 0 0 0 0 0 0 0 0 0 0 0 0 0 0 0 0 0 0 0 0 0 0
0 0 0 0 0 0 0 0 0 0 0 0 0 0 0 0 0 0 0 0 0 0 0 0 0 0 0 0 0 0 0 0 0 0 0 0 0 0 0 0 0 0 0
0 0 0 0 0 0 0 0 0 0 0 0 0 0 0 0 0 0 0 0 0 0 0 0 0 0 0 0 0 0 0 0 0 0 0 0 0 0 0 0 0 0 0
0 0 0 0 0 0 0 0 0 0 0 0 0 0 0 0 0 0 0 0 0 0 0 0 0 0 0 0 0 0 0 0 0 0 0 0 0 0 0 0 0 0 0
0 0 0 0 0 0 0 0 0 0 0 0 0 0 0 0 0 0 0 0 0 0 0 0 0 0 0 0 0 0 0 0 0 0 0 0 0 0 0 0 0 0 0
0 0 0 0 0 0 0 0 0 0 0 0 0 0 0 0 0 0 0 0 0 0 0 0 0 0 0 0 0 0 0 0 0 0 0 0 0 0 0 0 0 0 0
0 0 0 0 0 0 0 0 0 0 0 0 0 0 0 0 0 0 0 0 0 0 0 0 0 0 0 0 0 0 0 0 0 0 0 0 0 0 0 0 0 0 0
0 0 0 0 0 0 0 0 0 0 0 0 0 0 0 0 0 0 0 0 0 0 0 0 0 0 0 0 0 0 0 0 0 0 0 0 0 0 0 0 0 0 0
0 0 0 0 0 0 0 0 0 0 0 0 0 0 0 0 0 0 0 0 0 0 0 0 0 0 0 0 0 0 0 0 0 0 0 0 0 0 0 0 0 0 0
0 0 0 0 0 0 0 0 0 0 0 0 0 0 0 0 0 0 0 0 0 0 0 0 0 0 0 0 0 0 0 0 0 0 0 0 0 0 0 0 0 0 0
0 0 0 0 0 0 0 0 0 0 0 0 0 0 0 0 0 0 0 0 0 0 0 0 0 0 0 0 0 0 0 0 0 0 0 0 0 0 0 0 0 0 0
0 0 0 0 0 0 0 0 0 0 0 0 0 0 0 0 0 0 0 0 0 0 0 0 0 0 0 0 0 0 0 0 0 0 0 0 0 0 0 0 0 0 0
0 0 0 0 0 0 0 0 0 0 0 0 0 0 0 0 0 0 0 0 0 0 0 0 0 0 0 0 0 0 0 0 0 0 0 0 0 0 0 0 0 0 0
0 0 0 0 0 0 0 0 0 0 0 0 0 0 0 0 0 0 0 0 0 0 0 0 0 0 0 0 0 0 0 0 0 0 0 0 0 0 0 0 0 0 0
0 0 0 0 0 0 0 0 0 0 0 0 0 0 0 0 0 0 0 0 0 0 0 0 0 0 0 0 0 0 0 0 0 0 0 0 0 0 0 0 0 0 0
0 0 0 0 0 0 0 0 0 0 0 0 0 0 0 0 0 0 0 0 0 0 0 0 0 0 0 0 0 0 0 0 0 0 0 0 0 0 0 0 0 0 0
0 0 0 0 0 0 0 0 0 0 0 0 0 0 0 0 0 0 0 0 0 0 0 0 0 0 0 0 0 0 0 0 0 0 0 0 0 0 0 0 0 0 0
Wind_Speed
4 4 4 4 5 5 5 5 5 5 5 6 7 7 8 9 8 8 8 8 9 9 8 9 9 7 6 5 5 5 5 4 5 4 3 2 4 4 3 3 4 4 5
3 3 3 4 4 3 4 4 4 4 5 6 6 6 7 8 8 8 8 9 9 9 9 9 9 7 8 6 5 6 5 5 5 5 3 3 4 4 3 3 2 2 3
3 3 3 3 3 4 3 4 3 4 4 5 5 6 7 7 8 8 8 8 8 8 8 9 9 8 9 6 7 6 5 5 4 4 3 2 2 2 2 1 1 1 1
3 3 3 4 4 4 3 3 3 4 4 5 5 6 6 7 7 7 7 7 7 6 6 7 8 9 9 8 7 7 6 5 4 4 3 3 2 2 2 2 1 1 0
3 3 3 4 4 3 3 3 3 3 4 4 5 5 5 5 5 5 5 6 5 5 5 6 7 8 9 8 6 6 6 5 4 4 4 3 3 3 3 2 2 1 0
3 3 3 3 3 4 4 4 4 4 4 4 4 4 4 4 5 6 5 5 5 5 5 4 5 6 8 9 10 9 9 7 6 5 4 5 5 4 3 3 3 2 1
4 4 4 4 4 4 4 5 5 4 4 4 5 5 5 5 6 7 6 5 5 4 4 3 3 4 6 5 6 7 8 9 9 7 6 6 6 5 5 4 3 3 2
4 4 4 4 5 5 5 5 6 4 4 4 5 5 4 5 5 6 7 5 4 4 4 4 3 4 5 5 5 4 4 4 5 5 5 5 5 5 6 5 4 2 1
4 4 5 5 5 5 5 5 5 4 4 3 3 4 3 3 3 3 3 2 2 2 3 3 3 4 6 6 5 5 4 3 3 4 4 4 5 5 5 4 4 3 1
4 4 4 5 5 5 5 5 4 4 3 3 3 2 1 1 2 2 1 2 2 1 1 2 4 3 5 6 5 5 5 4 4 3 3 3 3 4 4 4 4 4 2
4 4 4 4 5 5 4 4 3 3 3 2 2 1 1 1 0 0 1 1 2 1 1 2 2 3 4 6 5 5 5 5 4 4 3 3 3 3 2 2 1 2 3
4 4 4 4 4 4 4 3 2 2 2 2 1 2 1 1 1 1 1 0 0 1 1 1 2 3 3 4 4 6 8 6 4 4 3 2 2 2 2 3 3 3 3
4 4 4 4 4 4 2 2 1 1 1 1 1 1 1 1 1 1 1 1 1 0 0 1 1 3 3 4 6 7 6 4 4 4 3 2 2 3 3 3 4 5 6
4 4 4 3 4 3 1 0 0 0 0 1 1 1 1 1 0 1 1 1 1 1 1 2 2 3 3 4 5 4 3 3 4 4 3 3 3 3 2 2 3 4 4
4 4 3 3 2 2 1 1 1 0 1 0 0 0 0 1 1 1 1 1 1 1 1 1 2 2 2 3 3 3 3 4 4 3 3 3 3 3 3 2 2 3 3
3 3 2 2 2 1 1 2 3 2 3 2 2 2 2 2 2 1 1 1 3 3 2 2 2 2 2 3 3 3 3 3 3 3 3 3 3 3 3 3 3 3 4
3 3 2 2 2 1 1 1 2 3 3 3 2 3 3 2 1 2 3 4 4 4 3 2 2 2 2 2 3 3 3 3 3 3 3 3 3 3 3 3 3 4 4
3 3 3 2 1 1 1 0 0 1 2 3 3 3 3 2 2 3 5 5 3 3 2 3 2 2 2 2 3 3 3 3 3 3 3 3 3 4 4 3 3 4 4
3 2 2 1 1 1 1 1 1 1 1 2 2 3 3 3 4 4 4 3 3 2 2 2 2 2 2 3 3 3 3 3 3 3 3 3 3 4 4 4 4 5 4
2 3 3 2 2 1 1 1 1 1 1 1 2 2 2 2 3 3 3 3 3 2 2 2 2 2 2 3 3 3 3 3 3 3 3 3 3 4 4 4 4 4 4
2 2 3 2 1 1 1 1 1 1 1 1 1 2 2 1 1 2 2 2 2 2 2 2 2 2 2 3 3 3 3 3 3 3 3 3 4 4 4 4 4 4 4
1 1 1 1 1 1 1 1 1 1 1 1 2 2 3 2 1 2 2 2 2 2 2 2 2 2 2 3 3 3 3 3 3 3 4 3 3 4 4 4 4 4 4
1 1 2 2 1 1 1 1 1 1 1 1 2 2 2 1 1 2 2 2 2 2 2 2 2 2 2 3 2 3 3 3 3 4 4 4 4 4 4 5 5 4 4
2 1 1 2 1 1 1 1 1 1 1 1 2 2 1 1 1 2 2 2 2 2 2 2 2 3 4 3 3 3 3 3 4 4 5 5 4 4 4 4 4 5 5
2 2 1 1 1 1 1 1 1 1 2 2 1 1 1 1 2 2 2 2 2 2 3 2 2 3 4 4 4 4 6 6 6 5 4 5 5 5 5 5 4 4 4
1 2 1 1 1 1 1 1 1 1 1 1 1 1 1 1 1 2 2 2 2 2 2 2 3 4 4 4 5 7 8 8 8 7 5 5 5 5 5 4 5 5 5
Wind_Direction
281 271 263 263 257 250 247 248 244 237 230 233 233 232 236 232 227 224 226 221 221 224 223 221 223 218 213 216 215 216 217 210 234 240 217 208 204 206 198 200 204 204 210
290 290 274 265 267 264 262 262 255 253 240 238 237 236 239 238 229 224 227 228 223 224 222 219 222 219 216 214 212 216 218 213 213 224 226 209 210 199 183 189 202 199 204
310 306 298 283 275 268 269 276 271 269 262 251 247 243 240 239 234 230 227 228 227 226 222 219 219 217 220 216 212 213 215 215 204 203 215 209 200 169 162 181 164 181 195
313 303 302 295 283 275 274 278 275 277 275 265 259 252 245 240 239 236 230 228 229 227 225 224 220 218 219 214 213 211 205 200 199 198 200 193 186 172 160 180 196 189 193
321 315 309 305 307 304 289 279 283 278 283 278 265 261 258 246 240 235 225 226 223 223 224 225 223 221 216 212 208 201 194 193 193 192 194 186 189 180 191 183 189 140 328
319 311 310 311 312 307 301 288 288 286 286 283 270 257 255 255 257 251 239 228 221 217 222 227 221 218 212 210 209 199 192 189 191 191 199 195 203 195 183 179 164 155 226
315 312 315 316 310 305 306 300 284 279 281 278 277 265 252 248 258 259 246 237 219 214 219 220 223 216 198 194 195 195 198 194 195 193 193 201 196 188 178 184 190 191 208
314 312 315 316 310 309 306 300 291 280 278 273 268 264 252 242 252 254 244 228 216 212 214 209 215 210 193 182 180 182 187 186 193 193 192 195 191 181 181 183 175 138 80
311 314 317 312 307 306 301 297 298 300 293 281 274 268 258 244 237 239 237 193 187 206 210 204 208 203 180 173 172 175 177 165 147 150 154 161 165 165 156 140 148 144 147
304 306 308 308 305 301 297 298 303 306 299 298 289 266 222 202 231 221 228 170 174 197 214 212 199 190 178 172 170 170 175 166 144 120 112 114 128 133 139 164 169 158 141
304 308 308 307 305 299 296 295 303 310 310 321 329 359 104 121 122 176 211 149 159 185 229 214 180 165 184 185 179 171 167 151 142 138 126 111 96 85 73 69 91 145 150
302 300 300 300 302 302 294 297 307 321 334 352 14 16 50 74 65 55 48 23 138 190 211 186 165 171 178 179 170 150 145 138 135 130 125 121 113 101 89 83 85 82 86
305 301 298 299 298 297 285 290 314 353 8 360 18 16 3 42 56 27 26 17 360 1 158 157 168 159 144 147 143 140 137 134 133 130 128 116 109 117 110 98 88 81 68
306 302 300 300 304 311 316 315 10 20 37 1 356 352 352 359 26 43 36 83 82 81 89 100 105 115 115 124 130 129 124 131 132 128 122 118 114 112 112 115 113 103 84
308 304 308 310 313 331 351 17 14 327 235 227 274 297 299 307 289 307 306 152 141 146 103 92 105 104 98 108 108 103 104 108 105 112 121 123 121 115 112 107 107 100 103
302 308 312 315 328 339 6 14 13 7 10 6 342 319 315 280 281 321 353 88 109 123 105 108 103 99 105 118 118 111 105 107 114 120 122 126 130 130 119 105 101 108 113
301 301 305 318 332 331 355 43 5 9 12 6 351 342 331 326 24 91 108 111 115 113 108 116 116 112 105 107 112 114 109 110 114 116 120 126 127 123 120 118 116 112 109
310 305 312 316 325 326 334 5 14 23 0 353 352 357 1 25 71 105 112 105 103 91 111 123 124 117 106 104 106 107 108 109 110 113 111 120 127 125 121 121 123 124 121
319 321 325 337 348 351 8 24 34 47 30 357 354 3 6 38 66 84 90 101 111 105 97 100 106 106 104 106 107 108 107 106 108 106 102 108 118 120 120 122 122 121 113
323 322 338 358 5 0 9 28 42 50 29 6 355 360 5 35 67 71 81 92 96 97 97 98 97 100 107 114 112 109 104 100 98 97 101 102 113 119 122 122 121 121 117
325 334 344 357 3 352 357 15 52 60 32 0 345 344 352 46 68 80 86 91 97 102 102 100 100 99 107 116 116 112 110 109 103 100 100 101 109 117 118 118 117 115 117
338 358 11 5 4 9 14 43 65 65 32 3 353 353 356 39 66 86 90 88 88 91 94 98 95 88 107 118 123 123 119 117 115 112 106 104 104 112 115 116 117 117 119
4 19 19 15 12 12 29 52 48 36 22 10 2 5 17 43 63 82 88 88 86 84 82 90 94 87 86 89 98 118 127 126 127 128 121 115 110 112 118 122 125 125 123
10 22 18 11 13 53 65 50 36 21 18 15 9 5 9 26 63 78 82 84 84 83 83 84 92 104 103 96 92 96 105 112 114 117 121 123 119 118 120 122 124 128 125
11 12 12 6 18 59 63 49 32 17 10 6 2 5 8 36 65 69 72 77 79 80 82 85 98 101 105 107 110 113 115 111 108 110 112 114 116 117 121 123 126 123 122
10 2 3 7 26 57 66 51 20 2 356 348 348 359 11 42 69 70 71 79 86 82 81 86 98 104 108 107 114 118 116 113 112 109 110 114 116 118 119 119 123 121 121